Weather History for Tacoma, WA

Change the Weather History Date:

Tuesday, November 20, 2012

  Actual Average Record
Temperature  
Mean Temperature 44 °F -  
Max Temperature 52 °F 48 °F 61 °F (1987)
Min Temperature 35 °F 35 °F 16 °F (1977)
Degree Days  
Heating Degree Days 22    
Moisture  
Dew Point 42 °F    
Average Humidity 94    
Maximum Humidity 100    
Minimum Humidity 78    
Precipitation  
Precipitation 0.11 in - - ()
Sea Level Pressure  
Sea Level Pressure 29.63 in    
Wind  
Wind Speed 4 mph (SE)    
Max Wind Speed 20 mph    
Max Gust Speed 29 mph    
Visibility 6 miles    
Events Fog , Rain    
Averages and records for this station are not official NWS values.
T = Trace of Precipitation, MM = Missing Value Source: NWS Daily Summary

Daily Weather History Graph

Daily Weather History Graph

Search for Another Location

Airport:

Trip Planner

Search our weather history database for the weather conditions in past years. The results will help you decide how hot, cold, wet, or windy it might be!

Date:

Astronomy

Nov. 20, 2012 Rise Set
Actual Time 7:21 AM PST 4:29 PM PST
Civil Twilight 6:47 AM PST 5:03 PM PST
Nautical Twilight 6:10 AM PST 5:40 PM PST
Astronomical Twilight 5:34 AM PST 6:16 PM PST
Moon 12:44 PM PST (11/20) No Moon Set
Length of Visible Light 10h 15m
Length of Day
9h 07m
First Quarter, 52% of the Moon is Illuminated
Nov 20
First Quarter
Nov 28
Full
Dec 6
Last Quarter
Dec 13
New
Dec 19
First Quarter

Hourly Weather History & Observations

Time (PST) Temp. Windchill Dew Point Humidity Pressure Visibility Wind Dir Wind Speed Gust Speed Precip Events Conditions
12:58 AM 43.3 °F 41.7 °F 43.2 °F 99% 29.70 in 10.0 mi SE 3.5 mph - N/A   Overcast
1:23 AM 42.8 °F - 42.8 °F 100% 29.70 in 1.2 mi SSE 2.3 mph - N/A   Overcast
1:28 AM 42.8 °F 41.1 °F 42.8 °F 100% 29.69 in 1.0 mi SE 3.5 mph - N/A   Overcast
1:38 AM 42.8 °F 40.1 °F 42.8 °F 100% 29.69 in 1.8 mi SSE 4.6 mph - N/A   Overcast
1:43 AM 42.8 °F 41.1 °F 42.8 °F 100% 29.69 in 3.0 mi SE 3.5 mph - N/A   Overcast
1:58 AM 43.5 °F 41.9 °F 43.2 °F 99% 29.69 in 8.0 mi South 3.5 mph - N/A   Overcast
2:20 AM 44.6 °F - 42.8 °F 93% 29.69 in 10.0 mi SW 1.2 mph - N/A Rain Light Rain
2:39 AM 44.6 °F 43.1 °F 44.6 °F 100% 29.69 in 10.0 mi SE 3.5 mph - N/A   Mostly Cloudy
2:58 AM 44.4 °F - 44.2 °F 99% 29.68 in 10.0 mi NW 2.3 mph - 0.00 in   Mostly Cloudy
3:40 AM 44.6 °F - 44.6 °F 100% 29.68 in 10.0 mi Calm Calm - N/A Rain Light Rain
3:52 AM 42.8 °F - 42.8 °F 100% 29.67 in 10.0 mi Calm Calm - N/A   Mostly Cloudy
3:58 AM 43.3 °F - 43.2 °F 99% 29.67 in 10.0 mi East 1.2 mph - 0.01 in   Scattered Clouds
4:58 AM 41.0 °F - 41.0 °F 100% 29.65 in 1.8 mi East 2.3 mph - N/A   Clear
5:03 AM 41.0 °F 39.0 °F 41.0 °F 100% 29.65 in 1.2 mi East 3.5 mph - N/A   Clear
5:08 AM 41.0 °F - 41.0 °F 100% 29.65 in 1.5 mi East 2.3 mph - N/A   Clear
5:13 AM 41.0 °F - 41.0 °F 100% 29.65 in 4.0 mi East 2.3 mph - N/A   Clear
5:53 AM 41.0 °F - 41.0 °F 100% 29.65 in 1.8 mi SE 2.3 mph - N/A   Mostly Cloudy
5:58 AM 39.7 °F 37.6 °F 39.6 °F 99% 29.67 in 0.8 mi SE 3.5 mph - N/A   Mostly Cloudy
6:03 AM 39.2 °F - 39.2 °F 100% 29.65 in 0.8 mi ESE 2.3 mph - N/A   Scattered Clouds
6:08 AM 39.2 °F - 39.2 °F 100% 29.65 in 1.0 mi ESE 2.3 mph - N/A   Partly Cloudy
6:13 AM 41.0 °F - 41.0 °F 100% 29.65 in 1.8 mi Calm Calm - N/A   Partly Cloudy
6:18 AM 41.0 °F - 41.0 °F 100% 29.65 in 3.0 mi SSE 1.2 mph - N/A   Clear
6:23 AM 42.8 °F - 42.8 °F 100% 29.64 in 1.5 mi SSW 1.2 mph - N/A   Partly Cloudy
6:28 AM 41.0 °F - 41.0 °F 100% 29.64 in 1.0 mi Calm Calm - N/A   Partly Cloudy
6:33 AM 41.0 °F - 41.0 °F 100% 29.64 in 0.8 mi SE 1.2 mph - N/A   Partly Cloudy
6:38 AM 39.2 °F - 39.2 °F 100% 29.64 in 0.5 mi Calm Calm - N/A Fog Fog
6:43 AM 37.4 °F - 37.4 °F 100% 29.63 in 0.5 mi Calm Calm - N/A Fog Fog
6:53 AM 39.2 °F - 39.2 °F 100% 29.63 in 0.5 mi Calm Calm - N/A Fog Fog
6:58 AM 39.2 °F - 39.2 °F 100% 29.65 in 0.2 mi Calm Calm - N/A Fog Fog
7:03 AM 37.4 °F - 37.4 °F 100% 29.63 in 0.5 mi Calm Calm - N/A Fog Fog
7:08 AM 37.4 °F - 35.6 °F 93% 29.63 in 0.5 mi Calm Calm - N/A Fog Fog
7:13 AM 37.4 °F - 37.4 °F 100% 29.62 in 0.2 mi Variable 1.2 mph - N/A Fog Fog
7:33 AM 37.4 °F - 37.4 °F 100% 29.60 in 0.2 mi NE 2.3 mph - N/A Fog Fog
7:38 AM 39.2 °F - 39.2 °F 100% 29.60 in 0.5 mi East 2.3 mph - N/A Fog Fog
7:43 AM 37.4 °F - 37.4 °F 100% 29.60 in 0.8 mi East 2.3 mph - N/A   Partly Cloudy
7:48 AM 37.4 °F - 37.4 °F 100% 29.60 in 0.5 mi Calm Calm - N/A Fog Fog
7:58 AM 35.6 °F - 35.6 °F 100% 29.61 in 0.5 mi ESE 1.2 mph - N/A Fog Fog
8:13 AM 37.4 °F 34.9 °F 37.4 °F 100% 29.59 in 0.5 mi South 3.5 mph - N/A Fog Fog
8:18 AM 37.4 °F - 37.4 °F 100% 29.58 in 1.5 mi North - - N/A   Mostly Cloudy
8:23 AM 37.4 °F - 37.4 °F 100% 29.57 in 3.0 mi ENE 2.3 mph - N/A   Mostly Cloudy
8:28 AM 37.4 °F 34.9 °F 37.4 °F 100% 29.57 in 2.5 mi East 3.5 mph - N/A   Mostly Cloudy
8:33 AM 39.2 °F 35.9 °F 37.4 °F 93% 29.58 in 4.0 mi ESE 4.6 mph - N/A   Mostly Cloudy
8:58 AM 42.1 °F - 41.7 °F 99% 29.59 in 10.0 mi ESE 2.3 mph - N/A   Mostly Cloudy
9:44 AM 42.8 °F 40.1 °F 42.8 °F 100% 29.54 in 10.0 mi East 4.6 mph - N/A Rain Light Rain
9:58 AM 43.7 °F - 43.3 °F 99% 29.56 in 10.0 mi East 1.2 mph - 0.00 in Rain Light Rain
10:58 AM 45.1 °F - 45.0 °F 99% 29.58 in 4.0 mi West 2.3 mph - 0.08 in Rain Light Rain
11:17 AM 46.4 °F - 46.4 °F 100% 29.56 in 10.0 mi Calm Calm - N/A   Overcast
11:58 AM 47.3 °F - 47.1 °F 99% 29.58 in 10.0 mi Calm Calm - 0.01 in   Overcast
12:53 PM 51.8 °F - 48.2 °F 88% 29.57 in 10.0 mi South 13.8 mph - N/A Rain Light Rain
12:58 PM 52.3 °F - 47.3 °F 83% 29.59 in 10.0 mi South 18.4 mph 28.8 mph 0.00 in Rain Light Rain
1:03 PM 51.8 °F - 46.4 °F 82% 29.58 in 9.0 mi SSW 15.0 mph 28.8 mph N/A   Overcast
1:05 PM 51.8 °F - 46.4 °F 82% 29.58 in 9.0 mi South 15.0 mph 28.8 mph N/A Rain Light Rain
1:06 PM 51.8 °F - 46.4 °F 82% 29.58 in 9.0 mi South 17.3 mph 28.8 mph N/A   Mostly Cloudy
1:07 PM 51.8 °F - 46.4 °F 82% 29.57 in 9.0 mi South 17.3 mph 23.0 mph N/A Rain Light Rain
1:17 PM 51.8 °F - 46.4 °F 82% 29.58 in 10.0 mi South 19.6 mph 27.6 mph N/A   Mostly Cloudy
1:58 PM 51.3 °F - 46.4 °F 83% 29.62 in 10.0 mi SSW 12.7 mph - 0.01 in   Mostly Cloudy
2:23 PM 51.8 °F - 46.4 °F 82% 29.62 in 10.0 mi SW 5.8 mph - N/A   Overcast
2:43 PM 51.8 °F - 46.4 °F 82% 29.63 in 10.0 mi South 15.0 mph - N/A   Overcast
2:58 PM 50.9 °F - 46.6 °F 85% 29.66 in 10.0 mi South 13.8 mph - N/A   Mostly Cloudy
3:58 PM 50.0 °F - 43.5 °F 78% 29.69 in 10.0 mi South 10.4 mph - N/A   Partly Cloudy
4:39 PM 48.2 °F - 42.8 °F 82% 29.67 in 10.0 mi SSE 11.5 mph - N/A Rain Light Rain
4:51 PM 48.2 °F - 42.8 °F 82% 29.66 in 10.0 mi SSE 8.1 mph - N/A   Scattered Clouds
4:58 PM 46.9 °F - 42.8 °F 86% 29.68 in 10.0 mi SSE 8.1 mph - 0.00 in   Scattered Clouds
5:58 PM 46.2 °F 43.3 °F 40.6 °F 81% 29.68 in 10.0 mi SSE 5.8 mph - N/A   Partly Cloudy
6:58 PM 46.9 °F - 41.4 °F 81% 29.69 in 10.0 mi SSE 5.8 mph - N/A   Overcast
7:58 PM 44.6 °F 40.7 °F 40.3 °F 85% 29.69 in 10.0 mi South 6.9 mph - N/A   Mostly Cloudy
8:58 PM 45.0 °F 41.8 °F 39.9 °F 82% 29.67 in 10.0 mi ESE 5.8 mph - N/A   Clear
9:58 PM 42.8 °F 41.1 °F 40.3 °F 91% 29.65 in 10.0 mi SSE 3.5 mph - N/A   Overcast
10:58 PM 41.4 °F 37.6 °F 38.1 °F 88% 29.62 in 10.0 mi SSE 5.8 mph - N/A   Mostly Cloudy
11:58 PM 43.9 °F 41.3 °F 38.7 °F 82% 29.58 in 10.0 mi ESE 4.6 mph - N/A   Scattered Clouds